This is the latest recevied weather packets stored in our database for station/object W0WC. If no packets are shown the sender has not sent any weather packets the latest 10 day(s).
| Time | Temp. | Humidity | Pressure | Rain* | Wind** | Luminosity | Snow |
|---|---|---|---|---|---|---|---|
| 1777645202 | 12.78° C | 54% | 1020.1 hPa | 0 mm | - | 384 W/m² | - |
| 1777644898 | 12.78° C | 55% | 1020.2 hPa | 0 mm | - | 311 W/m² | - |
| 1777644596 | 12.78° C | 57% | 1020.1 hPa | 0 mm | - | 280 W/m² | - |
| 1777644297 | 12.78° C | 56% | 1020 hPa | 0 mm | - | 287 W/m² | - |
| 1777643993 | 12.78° C | 56% | 1020 hPa | 0 mm | - | 284 W/m² | - |
| 1777643690 | 12.78° C | 59% | 1020.2 hPa | 0 mm | - | 278 W/m² | - |
| 1777643388 | 13.33° C | 55% | 1020.1 hPa | 0 mm | - | 240 W/m² | - |
| 1777643084 | 12.78° C | 60% | 1019.8 hPa | 0 mm | - | 276 W/m² | - |
| 1777642781 | 12.22° C | 61% | 1019.7 hPa | 0 mm | - | 249 W/m² | - |
| 1777642478 | 12.78° C | 61% | 1019.9 hPa | 0 mm | - | 209 W/m² | - |
| 1777642174 | 12.22° C | 63% | 1020.1 hPa | 0 mm | - | 217 W/m² | - |
| 1777641872 | 11.67° C | 64% | 1019.7 hPa | 0 mm | - | 198 W/m² | - |
| 1777641571 | 12.22° C | 66% | 1019.9 hPa | 0 mm | - | 169 W/m² | - |
| 1777641266 | 12.22° C | 68% | 1019.8 hPa | 0 mm | - | 183 W/m² | - |
| 1777640963 | 11.67° C | 69% | 1019.9 hPa | 0 mm | - | 162 W/m² | - |
| 1777640660 | 11.67° C | 70% | 1019.8 hPa | 0 mm | - | 151 W/m² | - |
| 1777640356 | 11.11° C | 72% | 1019.7 hPa | 0 mm | - | 140 W/m² | - |
| 1777640053 | 11.11° C | 73% | 1019.8 hPa | 0 mm | - | 121 W/m² | - |
| 1777639750 | 10.56° C | 76% | 1019.9 hPa | 0 mm | - | 104 W/m² | - |
| 1777639448 | 10° C | 78% | 1019.8 hPa | 0 mm | - | 88 W/m² | - |
| 1777639143 | 9.44° C | 79% | 1019.6 hPa | 0 mm | - | 68 W/m² | - |
| 1777638840 | 9.44° C | 81% | 1019.6 hPa | 0 mm | - | 55 W/m² | - |
| 1777638535 | 9.44° C | 83% | 1019.4 hPa | 0 mm | - | 62 W/m² | - |
| 1777638232 | 8.89° C | 86% | 1019.3 hPa | 0 mm | - | 54 W/m² | - |
| 1777637928 | 8.89° C | 88% | 1019.5 hPa | 0 mm | - | 49 W/m² | - |
* Rain latest hour (hover to see other rain measurements)
** Current wind speed in m/s (hover to see current wind gust speed)